Starlink 32821

operational
NORAD ID: 63078 Int'l Des: 2025-037 Owner: SPXS Country: US Constellation: starlink
LEOCIRCULAR

关于 Starlink 32821

正在加载描述...

实时位置

正在加载3D地球...

即将过境

高度历史

Altitude vs Time

uPlot chart will show altitude changes over time

两行轨道根数

1 63078U 25037B 25350.99908016 .00004657 00000-0 39779-3 0 9998
2 63078 69.9992 203.0296 0002911 266.1267 93.9560 14.98332709 46205
Epoch: Dec 16, 2025 • Age: 13 hours

当前状态

高度 588.2 km
速度 7.57 km/s
星下点 -47.04°S, 96.1°W
发射日期 Feb 23, 2025
运行时间 0.8 years
类型 internet

技术详情

分类 Payload
质量 730.00 kg
干质量 700.00 kg
总质量 730.00 kg
长度 0.30 m
直径 4.10 m
跨度 29.00 m
形状 Box + pan
制造商 SPXS
平台类型 Starlink V2M
阶段状态 In Orbit
所有者/国家 SPXS/US

大型星座

Loading constellations...